�N����,����,�~����,�C��,���x,�C��,����,���ϕ���,�ő�u�ԕ���,�ő厞����,���˗�,�I�_���x,�n�����x,�ő啗���N��,DTYPE
"23/11/08","00:10",0.0,10.7,92.6,1014.2,314.6,1.8,2.5,326.2,0.00,9.6,16.6,"00:05:36",1
"23/11/08","00:20",0.0,10.5,92.8,1014.2,300.9,1.6,2.6,317.5,0.00,9.4,16.7,"00:14:40",1
"23/11/08","00:30",0.0,10.3,93.0,1014.7,302.0,0.8,2.1,317.7,0.00,9.3,16.4,"00:25:04",1
"23/11/08","00:40",0.0,10.2,93.2,1014.5,299.4,1.6,2.2,338.3,0.00,9.2,16.5,"00:39:28",1
"23/11/08","00:50",0.0,10.2,93.3,1015.2,322.5,1.8,2.7,321.5,0.00,9.2,16.7,"00:47:52",1
"23/11/08","01:00",0.0,10.1,93.4,1014.7,312.7,2.0,2.6,308.3,0.00,9.1,16.4,"00:53:28",1
"23/11/08","01:10",0.0,10.2,93.6,1014.7,310.3,2.0,2.5,314.9,0.00,9.3,16.7,"01:07:52",1
"23/11/08","01:20",0.0,10.2,93.7,1014.2,315.0,1.7,2.4,322.7,0.00,9.3,16.3,"01:15:36",1
"23/11/08","01:30",0.0,10.3,93.8,1014.7,311.1,2.3,3.1,318.2,0.00,9.4,16.3,"01:22:48",1
"23/11/08","01:40",0.0,10.2,93.9,1014.9,290.8,1.6,2.4,323.4,0.00,9.3,16.3,"01:31:04",1
"23/11/08","01:50",0.0,10.2,94.0,1015.2,295.8,1.7,2.1,307.9,0.00,9.3,16.3,"01:41:20",1
"23/11/08","02:00",0.0,10.0,94.1,1014.9,303.0,1.5,2.2,311.6,0.00,9.1,16.1,"01:50:40",1
"23/11/08","02:10",0.0,10.0,94.2,1014.5,293.1,1.5,2.4,323.6,0.00,9.2,16.2,"02:02:56",1
"23/11/08","02:20",0.0,10.1,94.4,1014.9,286.5,1.6,2.2,292.3,0.00,9.3,16.1,"02:18:08",1
"23/11/08","02:30",0.0,10.3,94.4,1015.2,301.3,1.6,2.7,319.6,0.00,9.5,16.1,"02:22:32",1
"23/11/08","02:40",0.0,10.4,94.4,1015.2,306.9,1.7,2.5,317.5,0.00,9.6,16.2,"02:36:56",1
"23/11/08","02:50",0.0,10.3,94.4,1014.7,317.7,2.0,2.7,327.8,0.00,9.5,16.0,"02:40:24",1
"23/11/08","03:00",0.0,10.2,94.4,1014.9,291.8,1.3,2.1,308.4,0.00,9.4,16.2,"02:58:32",1
"23/11/08","03:10",0.0,9.8,94.5,1014.9,299.5,1.3,1.8,301.2,0.00,9.0,16.2,"03:05:44",1
"23/11/08","03:20",0.0,9.7,94.7,1014.7,315.2,1.7,3.1,315.1,0.00,8.9,16.0,"03:11:52",1
"23/11/08","03:30",0.0,9.4,94.8,1014.7,300.2,1.6,2.2,315.0,0.00,8.6,15.8,"03:28:00",1
"23/11/08","03:40",0.0,9.3,94.9,1014.9,313.7,1.8,2.4,317.7,0.00,8.6,15.7,"03:39:28",1
"23/11/08","03:50",0.0,9.0,95.0,1014.9,306.2,1.3,1.9,311.9,0.00,8.3,15.9,"03:40:24",1
"23/11/08","04:00",0.0,8.7,95.1,1014.9,298.2,1.5,2.2,312.4,0.00,8.0,15.8,"03:59:04",1
"23/11/08","04:10",0.0,8.7,95.3,1014.9,309.4,1.8,2.7,320.6,0.00,8.0,15.8,"04:02:56",1
"23/11/08","04:20",0.0,8.7,95.4,1014.9,289.9,0.8,1.6,278.6,0.00,8.0,15.7,"04:10:16",1
"23/11/08","04:30",0.0,8.5,95.4,1014.9,289.2,1.3,1.8,291.8,0.00,7.8,15.6,"04:29:44",1
"23/11/08","04:40",0.0,8.4,95.7,1014.5,307.5,2.2,2.7,314.8,0.00,7.8,15.7,"04:30:32",1
"23/11/08","04:50",0.0,8.4,95.6,1014.7,298.5,1.7,2.9,317.9,0.00,7.8,15.7,"04:41:28",1
"23/11/08","05:00",0.0,8.3,95.8,1014.5,303.5,0.6,1.6,270.5,0.00,7.7,15.4,"04:50:08",1
"23/11/08","05:10",0.0,8.4,95.9,1014.5,312.1,2.1,3.4,321.6,0.00,7.8,15.5,"05:09:44",1
"23/11/08","05:20",0.0,8.2,96.0,1014.7,310.7,2.3,3.2,322.3,0.00,7.6,15.5,"05:12:32",1
"23/11/08","05:30",0.0,8.3,96.2,1014.9,294.4,1.8,2.4,283.7,0.00,7.8,15.5,"05:29:04",1
"23/11/08","05:40",0.0,8.2,96.2,1014.9,290.6,1.8,2.4,308.1,0.00,7.7,15.5,"05:32:40",1
"23/11/08","05:50",0.0,8.4,96.2,1014.9,295.1,2.0,2.5,313.0,0.00,7.9,15.4,"05:47:04",1
"23/11/08","06:00",0.0,8.2,96.3,1015.4,295.3,1.6,2.4,309.6,0.00,7.7,15.4,"05:51:52",1
"23/11/08","06:10",0.0,7.8,96.4,1015.2,291.1,1.3,1.9,278.8,0.00,7.3,15.3,"06:03:12",1
"23/11/08","06:20",0.0,7.7,96.7,1015.2,295.4,1.7,2.4,313.9,0.00,7.2,15.2,"06:13:20",1
"23/11/08","06:30",0.0,8.0,96.7,1015.4,307.0,1.7,2.5,319.7,0.00,7.5,15.2,"06:27:52",1
"23/11/08","06:40",0.0,7.8,96.7,1015.6,289.1,1.7,2.6,308.1,0.00,7.3,15.1,"06:35:20",1
"23/11/08","06:50",0.0,8.0,97.0,1015.9,298.2,1.6,2.4,313.9,0.00,7.6,15.1,"06:40:02",1
"23/11/08","07:00",0.0,8.4,97.0,1015.9,314.5,2.2,2.9,322.2,0.00,8.0,15.0,"06:53:12",1
"23/11/08","07:10",0.0,8.9,97.0,1015.6,319.0,1.8,2.5,316.3,0.00,8.5,15.1,"07:02:24",1
"23/11/08","07:20",0.0,9.3,97.0,1016.1,280.4,1.1,1.4,265.3,0.01,8.9,14.9,"07:18:54",1
"23/11/08","07:30",0.0,10.0,96.9,1016.6,298.2,1.3,2.0,305.8,0.02,9.6,14.8,"07:28:06",1
"23/11/08","07:40",0.0,10.9,96.8,1016.6,275.7,0.3,1.0,308.1,0.04,10.5,15.0,"07:30:16",1
"23/11/08","07:50",0.0,11.6,96.5,1016.6,283.2,0.3,0.6,321.8,0.06,11.1,15.0,"07:44:56",1
"23/11/08","08:00",0.0,12.3,96.3,1017.1,276.0,0.5,0.9,276.7,0.07,11.8,14.9,"07:54:24",1
"23/11/08","08:10",0.0,12.7,96.1,1017.5,273.8,0.5,1.1,123.9,0.09,12.1,15.0,"08:09:44",1
"23/11/08","08:20",0.0,13.0,95.6,1017.5,164.3,0.3,1.4,111.0,0.11,12.4,14.8,"08:18:32",1
"23/11/08","08:30",0.0,13.2,95.4,1017.8,179.7,0.3,0.8,239.0,0.14,12.5,14.8,"08:22:24",1
"23/11/08","08:40",0.0,13.4,93.9,1017.5,230.7,0.5,1.1,233.7,0.16,12.5,14.9,"08:32:32",1
"23/11/08","08:50",0.0,13.6,92.8,1017.8,332.3,0.7,1.7,317.9,0.18,12.5,15.0,"08:46:40",1
"23/11/08","09:00",0.0,14.4,91.2,1018.0,341.4,0.6,1.6,308.6,0.20,13.0,14.8,"08:56:08",1
"23/11/08","09:10",0.0,14.6,87.6,1017.8,241.2,1.0,1.8,214.1,0.22,12.6,14.9,"09:03:52",1
"23/11/08","09:20",0.0,15.6,82.4,1017.8,206.7,0.6,1.3,179.6,0.24,12.7,15.0,"09:11:20",1
"23/11/08","09:30",0.0,16.4,78.0,1017.5,231.4,0.7,1.7,201.0,0.26,12.6,15.0,"09:24:08",1
"23/11/08","09:40",0.0,16.7,75.4,1017.3,208.5,0.8,2.2,92.4,0.28,12.4,15.2,"09:39:12",1
"23/11/08","09:50",0.0,17.0,73.8,1017.5,133.4,1.0,2.2,197.3,0.29,12.3,15.1,"09:44:48",1
"23/11/08","10:00",0.0,17.6,72.7,1017.5,211.7,0.6,1.8,126.0,0.31,12.7,15.0,"09:56:00",1
"23/11/08","10:10",0.0,18.1,70.2,1017.1,73.1,0.6,1.7,119.0,0.32,12.6,15.2,"10:08:40",1
"23/11/08","10:20",0.0,18.6,67.5,1017.1,249.5,0.7,1.6,128.2,0.34,12.5,15.3,"10:10:48",1
"23/11/08","10:30",0.0,19.0,66.5,1017.3,192.6,0.7,1.6,94.1,0.35,12.7,15.3,"10:23:36",1
"23/11/08","10:40",0.0,19.1,64.8,1016.6,121.0,1.0,2.0,124.7,0.36,12.4,15.4,"10:36:08",1
"23/11/08","10:50",0.0,19.5,63.3,1016.6,226.0,0.7,1.7,144.9,0.37,12.4,15.5,"10:47:36",1
"23/11/08","11:00",0.0,19.5,61.5,1016.4,209.8,0.8,2.7,221.5,0.38,12.0,15.6,"10:56:24",1
"23/11/08","11:10",0.0,19.6,61.4,1016.4,193.0,1.0,2.4,204.2,0.38,12.0,15.6,"11:03:28",1
"23/11/08","11:20",0.0,19.9,61.6,1015.9,229.2,1.1,2.8,232.2,0.38,12.4,15.7,"11:13:36",1
"23/11/08","11:30",0.0,20.0,60.8,1015.9,197.9,1.2,2.8,151.0,0.39,12.2,15.5,"11:22:40",1
"23/11/08","11:40",0.0,20.2,59.0,1015.4,138.4,1.2,2.6,110.7,0.39,12.0,15.6,"11:35:36",1
"23/11/08","11:50",0.0,20.9,58.0,1015.6,189.8,0.7,2.2,72.4,0.39,12.4,16.0,"11:47:36",1
"23/11/08","12:00",0.0,20.1,59.2,1015.2,215.7,2.1,4.0,235.9,0.39,11.9,16.0,"11:53:36",1
"23/11/08","12:10",0.0,20.5,59.6,1014.7,210.7,1.7,3.6,198.0,0.39,12.4,16.1,"12:01:12",1
"23/11/08","12:20",0.0,21.0,57.8,1014.9,204.5,1.2,3.6,218.4,0.39,12.4,16.1,"12:11:44",1
"23/11/08","12:30",0.0,21.1,55.9,1014.5,194.2,1.2,3.3,223.3,0.38,12.0,16.2,"12:29:28",1
"23/11/08","12:40",0.0,21.3,56.8,1014.2,218.8,1.2,2.8,203.5,0.37,12.4,16.4,"12:30:40",1
"23/11/08","12:50",0.0,21.8,53.3,1014.0,91.6,0.7,2.1,122.5,0.36,11.9,16.4,"12:46:24",1
"23/11/08","13:00",0.0,22.0,53.1,1013.8,187.3,1.0,2.1,240.0,0.35,12.1,16.5,"12:55:04",1
"23/11/08","13:10",0.0,22.3,51.1,1013.8,270.6,1.0,2.4,234.0,0.34,11.8,16.6,"13:03:36",1
"23/11/08","13:20",0.0,22.3,52.2,1013.8,237.5,1.1,3.2,219.5,0.33,12.1,16.7,"13:14:48",1
"23/11/08","13:30",0.0,22.2,51.1,1013.8,226.3,1.6,3.4,208.5,0.32,11.7,16.8,"13:23:44",1
"23/11/08","13:40",0.0,22.6,50.3,1013.8,282.1,1.6,4.3,345.9,0.30,11.8,16.8,"13:39:04",1
"23/11/08","13:50",0.0,22.5,50.0,1013.8,344.1,2.0,3.7,2.9,0.29,11.6,16.8,"13:48:48",1
"23/11/08","14:00",0.0,22.9,49.0,1013.5,248.2,1.1,2.5,329.9,0.27,11.7,17.1,"13:50:48",1
"23/11/08","14:10",0.0,22.9,48.7,1013.5,325.7,1.6,2.9,342.1,0.25,11.6,17.0,"14:08:24",1
"23/11/08","14:20",0.0,22.4,49.4,1013.3,328.9,2.2,4.1,347.7,0.23,11.3,17.0,"14:13:20",1
"23/11/08","14:30",0.0,22.6,50.2,1013.5,313.8,1.6,3.4,349.5,0.21,11.8,17.2,"14:25:12",1
"23/11/08","14:40",0.0,22.5,50.3,1013.8,356.0,1.8,4.2,339.6,0.19,11.7,17.1,"14:30:02",1
"23/11/08","14:50",0.0,21.9,51.2,1014.0,342.6,2.6,4.9,11.7,0.17,11.4,17.1,"14:46:16",1
"23/11/08","15:00",0.0,22.1,51.9,1013.8,343.6,2.0,3.7,352.3,0.15,11.8,17.4,"14:50:16",1
"23/11/08","15:10",0.0,22.1,50.8,1014.5,346.2,2.0,4.2,328.0,0.12,11.5,17.3,"15:06:48",1
"23/11/08","15:20",0.0,21.9,51.1,1014.2,338.4,2.0,4.3,350.9,0.10,11.4,17.2,"15:13:20",1
"23/11/08","15:30",0.0,21.3,52.0,1014.0,337.4,2.7,5.2,338.5,0.09,11.1,17.3,"15:24:48",1
"23/11/08","15:40",0.0,20.9,53.2,1014.5,340.4,2.7,5.2,342.0,0.07,11.1,17.5,"15:32:08",1
"23/11/08","15:50",0.0,20.7,54.3,1014.5,335.3,2.6,5.8,342.0,0.05,11.2,17.4,"15:41:20",1
"23/11/08","16:00",0.0,20.6,53.9,1014.7,347.4,2.2,4.1,355.5,0.03,11.0,17.4,"15:52:48",1
"23/11/08","16:10",0.0,20.1,55.3,1014.2,339.1,2.5,4.7,334.5,0.02,10.9,17.3,"16:00:48",1
"23/11/08","16:20",0.0,19.8,56.2,1014.5,333.0,2.2,5.2,344.8,0.01,10.9,17.5,"16:17:36",1
"23/11/08","16:30",0.0,19.1,57.7,1014.5,329.6,2.1,5.6,347.6,0.00,10.6,17.4,"16:25:20",1
"23/11/08","16:40",0.0,18.4,60.1,1014.7,334.6,2.6,6.3,343.8,0.00,10.6,17.4,"16:31:20",1
"23/11/08","16:50",0.0,17.9,62.2,1015.6,334.4,2.1,4.1,336.3,0.00,10.6,17.3,"16:48:24",1
"23/11/08","17:00",0.0,17.5,63.7,1015.2,334.5,2.0,4.0,341.1,0.00,10.6,17.3,"16:58:08",1
"23/11/08","17:10",0.0,17.1,64.7,1015.4,332.8,2.5,4.9,342.3,0.00,10.4,17.4,"17:02:32",1
"23/11/08","17:20",0.0,16.9,65.3,1015.6,325.9,2.2,4.9,324.0,0.00,10.4,17.2,"17:13:52",1
"23/11/08","17:30",0.0,16.6,66.4,1015.6,322.1,2.2,4.2,320.1,0.00,10.4,17.2,"17:23:36",1
"23/11/08","17:40",0.0,16.4,67.2,1015.9,307.0,1.8,3.4,321.4,0.00,10.3,17.3,"17:31:04",1
"23/11/08","17:50",0.0,16.1,68.0,1016.1,286.2,1.5,2.7,312.0,0.00,10.2,17.2,"17:49:50",1
"23/11/08","18:00",0.0,15.9,68.9,1016.1,313.1,2.0,3.7,318.8,0.00,10.2,17.2,"17:53:38",1
"23/11/08","18:10",0.0,15.8,69.4,1016.6,321.7,2.2,3.6,343.9,0.00,10.3,16.7,"18:06:10",1
"23/11/08","18:20",0.0,15.6,69.7,1016.6,304.7,1.6,2.7,339.8,0.00,10.1,17.0,"18:11:24",1
"23/11/08","18:30",0.0,15.4,70.3,1016.8,271.9,1.2,1.9,259.7,0.00,10.1,16.9,"18:27:28",1
"23/11/08","18:40",0.0,15.1,71.4,1016.6,268.9,1.5,2.5,252.2,0.00,10.0,17.1,"18:31:44",1
"23/11/08","18:50",0.0,14.8,72.5,1016.8,274.1,1.5,2.5,260.6,0.00,9.9,17.1,"18:44:32",1
"23/11/08","19:00",0.0,14.6,73.4,1017.1,282.1,1.3,2.5,250.9,0.00,9.9,16.9,"18:59:12",1
"23/11/08","19:10",0.0,14.5,74.4,1017.3,284.7,1.7,2.9,324.9,0.00,10.0,16.8,"19:08:46",1
"23/11/08","19:20",0.0,14.4,75.2,1017.3,300.9,2.2,3.3,315.7,0.00,10.1,16.8,"19:13:22",1
"23/11/08","19:30",0.0,14.3,75.8,1017.1,290.3,1.8,3.5,314.9,0.00,10.1,16.7,"19:26:56",1
"23/11/08","19:40",0.0,13.9,76.9,1017.3,287.3,1.6,3.3,323.8,0.00,10.0,16.7,"19:31:20",1
"23/11/08","19:50",0.0,13.7,78.2,1017.3,299.6,1.5,2.1,316.6,0.00,10.0,16.6,"19:45:06",1
"23/11/08","20:00",0.0,13.8,79.1,1017.3,330.3,2.2,3.1,325.5,0.00,10.3,16.7,"19:52:38",1
"23/11/08","20:10",0.0,13.6,79.5,1017.5,323.2,2.0,3.2,337.6,0.00,10.2,16.7,"20:05:40",1
"23/11/08","20:20",0.0,13.3,80.5,1017.5,321.2,2.0,3.5,344.6,0.00,10.1,16.7,"20:18:52",1
"23/11/08","20:30",0.0,13.1,81.4,1018.0,317.9,2.1,3.4,332.2,0.00,10.0,16.4,"20:29:28",1
"23/11/08","20:40",0.0,12.9,82.3,1018.0,324.4,2.0,2.7,331.9,0.00,10.0,16.6,"20:38:26",1
"23/11/08","20:50",0.0,12.7,83.1,1017.8,315.8,2.0,2.6,317.9,0.00,9.9,16.5,"20:40:08",1
"23/11/08","21:00",0.0,12.7,83.8,1017.5,325.9,1.8,2.7,329.4,0.00,10.1,16.6,"20:51:32",1
"23/11/08","21:10",0.0,12.6,84.3,1018.0,329.0,1.8,3.5,325.6,0.00,10.1,16.5,"21:02:54",1
"23/11/08","21:20",0.0,12.6,84.6,1018.2,327.5,2.2,3.2,334.0,0.00,10.1,16.3,"21:13:54",1
"23/11/08","21:30",0.0,12.5,84.9,1018.2,322.9,2.6,3.9,327.2,0.00,10.1,16.3,"21:27:26",1
"23/11/08","21:40",0.0,12.4,85.3,1018.0,326.1,2.8,4.3,335.4,0.00,10.0,16.3,"21:38:46",1
"23/11/08","21:50",0.0,12.5,85.5,1018.0,318.2,2.8,3.7,318.7,0.00,10.2,16.4,"21:43:06",1
"23/11/08","22:00",0.0,12.5,85.3,1018.0,305.9,2.3,3.4,296.0,0.00,10.1,16.2,"21:59:02",1
"23/11/08","22:10",0.0,12.5,85.3,1017.8,308.7,2.3,3.4,321.7,0.00,10.1,16.3,"22:01:10",1
"23/11/08","22:20",0.0,12.6,85.1,1018.0,319.8,2.8,4.3,326.3,0.00,10.2,16.1,"22:17:30",1
"23/11/08","22:30",0.0,12.4,85.1,1018.5,320.6,2.6,4.0,333.6,0.00,10.0,16.1,"22:25:46",1
"23/11/08","22:40",0.0,12.1,85.5,1018.2,317.1,2.7,3.6,324.6,0.00,9.8,16.3,"22:33:24",1
"23/11/08","22:50",0.0,12.0,86.1,1018.2,307.2,2.6,3.7,315.4,0.00,9.8,16.1,"22:49:14",1
"23/11/08","23:00",0.0,12.0,86.4,1018.2,318.2,2.7,3.4,335.9,0.00,9.8,16.2,"22:52:58",1
"23/11/08","23:10",0.0,11.9,86.8,1018.5,319.1,3.0,4.1,335.6,0.00,9.8,16.1,"23:07:14",1
"23/11/08","23:20",0.0,11.9,87.2,1018.5,305.9,2.6,3.4,303.8,0.00,9.9,16.1,"23:19:54",1
"23/11/08","23:30",0.0,12.0,87.2,1018.2,316.9,2.7,4.8,336.3,0.00,10.0,16.0,"23:29:06",1
"23/11/08","23:40",0.0,11.9,87.1,1018.2,318.5,2.3,3.3,311.6,0.00,9.9,16.2,"23:38:44",1
"23/11/08","23:50",0.0,11.7,87.1,1018.2,320.8,2.0,3.2,324.2,0.00,9.7,16.0,"23:42:16",1
"23/11/08","24:00",0.0,11.0,87.2,1018.7,296.1,1.5,1.8,282.9,0.00,9.0,16.0,"23:58:56",1
